Location: Bessat
(45.8735°N, 1.9924°E)
Time: 04:46:18
(UTC+00:00)

Cosmos 2082 Rocket - Pass Details

Date: 11 May 2021
Orbit: 834 x 852 km, 71.0° (Epoch: 14 June)

Event Time Altitude Azimuth Distance (km) Brightness Sun altitude
Rises 23:20:46 0° 317° (NW) 3,391 6.1 -25.7°
Reaches altitude 10° 23:24:25 10° 293° (WNW) 2,452 4.9 -25.8°
Maximum altitude 23:27:11 14° 263° (W) 2,176 4.3 -25.8°
Enters shadow 23:27:56 14° 254° (WSW) 2,197 4.2 -25.8°
